sat.trackr.live / text

‹ back to catalog

FLOCK 4G-33

NORAD 62685 · 2025-009CE

PAYLOAD ACTIVE UNKNOWN

§ Identity

Operator
Country
US
Launch date
2025-01-14
Launch site
AFWTR
Launch vehicle
Mass (kg)
RCS (m²)

Purposes: earth_obs

External: N2YO · Heavens-Above · Gunter

§ Orbital elements

Epoch: 2026-05-25T03:45:08.403264Z

Period
94.42 min
Inclination
97.3948°
Eccentricity
0.0006719
Mean motion
15.25151826 rev/d
Perigee alt
485.7 km
Apogee alt
494.9 km
Semi-major
6,868.5 km
B*
2.4316e-4
RAAN
225.2964°
Arg perigee
62.8118°
Mean anomaly
297.3804°
Rev number
7,529

§ Raw data

FLOCK 4G-331 62685U 25009CE  26145.15634726  .00006027  00000+0  24316-3 0  99982 62685  97.3948 225.2964 0006719  62.8118 297.3804 15.25151826 75290

JSON: /api/v1/satellites/62685 · /tle

For live sub-satellite position, see the globe view (requires WebGL).

§ Visibility from observer

Set your observer location to see the next 7 days of passes ≥ 10°. The values pass through the URL so the page stays shareable.

No JS? Fill the form by hand. The geolocation button needs JavaScript.